Regional Weather Roundup
Issued by NWS Kansas City/Pleasant Hill, MO

Home | Current Version | Previous Version | Graphics & Text | Print | Product List | Glossary Off
Versions: 1 2 3 4 5 6 7 8 9 10 11 12 13 14 15 16 17 18 19 20 21 22 23 24 25 26 27 28 29 30 31 32 33 34 35 36 37 38 39 40 41 42 43 44 45 46 47 48 49 50

000
ASUS43 KEAX 301111
RWREAX

WEATHER ROUNDUP FOR EASTERN KANSAS AND NORTHWEST MISSOURI
NATIONAL WEATHER SERVICE KANSAS CITY/PLEASANT HILL MO
600 AM CDT SAT AUG 30 2014

KSZ040-057-103>105-MOZ028-029-037-043-301200-
...KANSAS CITY METROPOLITAN AREA...

CITY           SKY/WX    TMP DP  RH WIND       PRES   REMARKS
K.C. INTL      CLEAR     66  65  96 SW6       29.90R
K.C. DOWNTOWN  CLEAR     72  67  84 SW3       29.89R
LEES SUMMIT    CLEAR     70  66  87 SW7       29.91R
OLATHE - IXD   CLEAR     69  66  90 SW8       29.91R
OLATHE - OJC   CLEAR     68  66  93 SW5       29.90S
LAWRENCE       CLEAR     66  63  90 CALM      29.90R

$$

MOZ001>008-011>017-020>025-030>033-038>040-044>046-053-054-301200-
...NORTHERN AND CENTRAL MISSOURI...

CITY           SKY/WX    TMP DP  RH WIND       PRES   REMARKS
ST. JOSEPH     CLEAR     64  63  96 S5        29.89R
MOSBY          SUNNY     66  66 100 CALM      29.89R FOG
WHITEMAN AFB   PTCLDY    70  67  90 SW9       29.90R
CLINTON        PTCLDY    72  70  94 S5        29.91S
SEDALIA        PTCLDY    73  66  78 SW8       29.91S
WARSAW         NOT AVBL
MARSHALL       CLOUDY    72  70  94 SW5       29.91S
CHILLICOTHE      N/A     71  67  87 CALM      29.89R
KIRKSVILLE     CLEAR     68  66  93 SW8       29.89R

$$

MOZ041-047>049-056>058-063>065-088>090-097-301200-
...EASTERN AND SOUTHERN MISSOURI...

CITY           SKY/WX    TMP DP  RH WIND       PRES   REMARKS
ST. LOUIS INTL MOCLDY    76  67  73 S9        29.93S
SPIRIT OF STL  PTCLDY    72  68  87 S3        29.92R
COLUMBIA       PTCLDY    68  67  96 S7        29.91S
JEFFERSON CITY PTCLDY    71  68  90 SE6       29.91S
MEXICO         CLEAR    N/A N/A N/A S7        29.90
HANNIBAL       PTCLDY    72  68  88 S7        29.89S
ROLLA          CLEAR     69  66  90 S9        29.94S
LEBANON        PTCLDY    70  66  88 S6        29.97R
OSAGE BEACH    PTCLDY    70  66  88 SW3       29.94S
SPRINGFIELD    MOCLDY    71  67  87 S13       29.96R
BRANSON        CLOUDY    72  68  88 CALM      29.99R
NEVADA         PTCLDY    70  68  94 S7        29.93S
JOPLIN         CLEAR     72  69  90 S8        29.94S
WEST PLAINS    MOCLDY    71  67  87 SW5       30.00S

$$

IAZ060-094-KSZ022-034>040-054-083-096-NEZ052-066-093-301200-
...KANSAS...SOUTHEAST NEBRASKA AND IOWA...

CITY           SKY/WX    TMP DP  RH WIND       PRES   REMARKS
TOPEKA         CLEAR     69  67  93 CALM      29.91R
MANHATTAN      CLEAR     64  63  96 CALM      29.93R
EMPORIA        CLEAR     66  65  96 CALM      29.93R
CHANUTE        CLEAR     71  69  93 SW8       29.92R
WICHITA        CLEAR     64  62  93 S5        29.93R
OMAHA          CLEAR     63  61  93 NW6       29.89R
LINCOLN        CLEAR     65  60  84 NW6       29.93R
FALLS CITY     CLEAR     66  65  96 W6        29.89R
LAMONI         CLEAR     65  64  97 W6        29.88R
DES MOINES     CLOUDY    67  64  90 W5        29.84R

$$



USA.gov is the U.S. government's official web portal to all federal, state and local government web resources and services.